Weather History for Morristown, NJ

Change the Weather History Date:

Thursday, December 12, 2013

  Actual Average Record
Temperature  
Mean Temperature 24 °F -  
Max Temperature 28 °F 42 °F 67 °F (1931)
Min Temperature 21 °F 24 °F 3 °F (1988)
Degree Days  
Heating Degree Days 40    
Moisture  
Dew Point 10 °F    
Average Humidity 54    
Maximum Humidity 64    
Minimum Humidity 43    
Precipitation  
Precipitation 0.00 in - - ()
Sea Level Pressure  
Sea Level Pressure 30.26 in    
Wind  
Wind Speed 6 mph (WNW)    
Max Wind Speed 12 mph    
Max Gust Speed 20 mph    
Visibility 11 miles    
Events      
Averages and records for this station are not official NWS values.
T = Trace of Precipitation, MM = Missing Value Source: NWS Daily Summary

Daily Weather History Graph

Daily Weather History Graph

Search for Another Location

Airport:

Trip Planner

Search our weather history database for the weather conditions in past years. The results will help you decide how hot, cold, wet, or windy it might be!

Date:

Astronomy

Dec. 12, 2013 Rise Set
Actual Time 7:12 AM EST 4:30 PM EST
Civil Twilight 6:41 AM EST 5:01 PM EST
Nautical Twilight 6:07 AM EST 5:35 PM EST
Astronomical Twilight 5:34 AM EST 6:08 PM EST
Moon 1:37 PM EST (12/12) 2:31 AM EST (12/12)
Length of Visible Light 10h 19m
Length of Day
9h 17m
Waxing Gibbous, 80% of the Moon is Illuminated
Dec 12
Waxing Gibbous
Dec 17
Full
Dec 25
Last Quarter
Jan 1
New
Jan 7
First Quarter

Hourly Weather History & Observations

Time (EST) Temp. Windchill Dew Point Humidity Pressure Visibility Wind Dir Wind Speed Gust Speed Precip Events Conditions
12:15 AM 28.4 °F 24.6 °F 15.8 °F 59% 30.23 in 10.0 mi West 3.5 mph - N/A   Clear
12:35 AM 28.4 °F 22.2 °F 15.8 °F 59% 30.23 in 10.0 mi WNW 5.8 mph - N/A   Clear
12:55 AM 28.4 °F 22.2 °F 15.8 °F 59% 30.23 in 10.0 mi NW 5.8 mph - N/A   Clear
1:15 AM 28.4 °F 22.2 °F 15.8 °F 59% 30.23 in 10.0 mi NW 5.8 mph - N/A   Clear
1:35 AM 26.6 °F 22.6 °F 15.8 °F 64% 30.24 in 10.0 mi West 3.5 mph - N/A   Clear
1:55 AM 28.4 °F 24.6 °F 15.8 °F 59% 30.25 in 10.0 mi WNW 3.5 mph - N/A   Mostly Cloudy
2:15 AM 26.6 °F 19.1 °F 15.8 °F 64% 30.25 in 10.0 mi WNW 6.9 mph - N/A   Scattered Clouds
2:35 AM 26.6 °F 20.0 °F 15.8 °F 64% 30.26 in 10.0 mi WNW 5.8 mph - N/A   Clear
2:55 AM 26.6 °F 20.0 °F 15.8 °F 64% 30.26 in 10.0 mi WNW 5.8 mph - N/A   Clear
3:15 AM 26.6 °F 19.1 °F 15.8 °F 64% 30.27 in 10.0 mi NW 6.9 mph - N/A   Clear
3:35 AM 26.6 °F 17.5 °F 15.8 °F 64% 30.27 in 10.0 mi NNW 9.2 mph 16.1 mph N/A   Clear
3:55 AM 26.6 °F 17.5 °F 14.0 °F 59% 30.28 in 10.0 mi NW 9.2 mph - N/A   Clear
4:15 AM 24.8 °F 16.1 °F 12.2 °F 59% 30.28 in 10.0 mi NNW 8.1 mph - N/A   Clear
4:35 AM 24.8 °F 17.9 °F 10.4 °F 54% 30.29 in 10.0 mi NNW 5.8 mph 9.2 mph N/A   Clear
4:55 AM 24.8 °F 17.9 °F 10.4 °F 54% 30.29 in 10.0 mi NW 5.8 mph - N/A   Clear
5:15 AM 24.8 °F 15.3 °F 10.4 °F 54% 30.29 in 10.0 mi NW 9.2 mph - N/A   Clear
5:35 AM 24.8 °F 16.9 °F 8.6 °F 50% 30.30 in 10.0 mi NW 6.9 mph - N/A   Clear
6:45 AM 21.2 °F 10.1 °F 8.6 °F 58% 30.32 in 10.0 mi NNW 10.4 mph 11.5 mph N/A   Clear
7:45 AM 21.2 °F 11.7 °F 6.8 °F 54% 30.34 in 10.0 mi NNW 8.1 mph 17.3 mph N/A   Clear
8:45 AM 21.2 °F 12.6 °F 6.8 °F 54% 30.36 in 10.0 mi NNW 6.9 mph 18.4 mph N/A   Clear
9:45 AM 23.0 °F 13.1 °F 8.6 °F 54% 30.37 in 10.0 mi North 9.2 mph 15.0 mph N/A   Clear
10:45 AM 24.8 °F 14.0 °F 8.6 °F 50% 30.36 in 10.0 mi North 11.5 mph 17.3 mph N/A   Clear
11:45 AM 24.8 °F 14.6 °F 6.8 °F 46% 30.30 in 10.0 mi NNW 10.4 mph 19.6 mph N/A   Partly Cloudy
12:45 PM 26.6 °F 16.8 °F 6.8 °F 43% 30.28 in 20.0 mi NNW 10.4 mph - N/A   Partly Cloudy
1:45 PM 24.8 °F 16.9 °F 6.8 °F 46% 30.27 in 10.0 mi NW 6.9 mph - N/A   Partly Cloudy
2:45 PM 26.6 °F 21.2 °F 6.8 °F 43% 30.26 in 20.0 mi West 4.6 mph - N/A   Partly Cloudy
3:45 PM 24.8 °F 16.9 °F 8.6 °F 50% 30.25 in 20.0 mi West 6.9 mph - N/A   Partly Cloudy
4:45 PM 24.8 °F 16.1 °F 5.0 °F 43% 30.25 in 20.0 mi West 8.1 mph 13.8 mph N/A   Clear
5:45 PM 23.0 °F 13.1 °F 6.8 °F 50% 30.26 in 10.0 mi WSW 9.2 mph - N/A   Clear
6:45 PM 23.0 °F 12.4 °F 6.8 °F 50% 30.26 in 10.0 mi WSW 10.4 mph 17.3 mph N/A   Clear
7:45 PM 21.2 °F 12.6 °F 6.8 °F 54% 30.26 in 10.0 mi WSW 6.9 mph - N/A   Clear
8:45 PM 21.2 °F 11.7 °F 6.8 °F 54% 30.24 in 10.0 mi West 8.1 mph - N/A   Clear
9:55 PM 23.0 °F 14.7 °F 5.0 °F 46% 30.21 in 10.0 mi SW 6.9 mph - N/A   Clear
10:15 PM 21.2 °F 11.7 °F 5.0 °F 50% 30.20 in 10.0 mi SW 8.1 mph - N/A   Clear
10:35 PM 23.0 °F 17.0 °F 5.0 °F 46% 30.19 in 10.0 mi SSW 4.6 mph - N/A   Mostly Cloudy
10:55 PM 23.0 °F 18.4 °F 5.0 °F 46% 30.19 in 10.0 mi SSW 3.5 mph - N/A   Overcast
11:15 PM 21.2 °F 16.4 °F 6.8 °F 54% 30.18 in 10.0 mi SSW 3.5 mph - N/A   Overcast
11:35 PM 21.2 °F 16.4 °F 6.8 °F 54% 30.17 in 10.0 mi SSW 3.5 mph - N/A   Overcast
11:55 PM 21.2 °F 14.9 °F 8.6 °F 58% 30.17 in 10.0 mi SSW 4.6 mph - N/A   Overcast